Location: Unspecified
(0.0000°N, 0.0000°E)
Time: 17:20:14
(UTC+00:00)

STARLINK 1042 - Pass Details

Date: 20 January 2020
Orbit: 549 x 551 km, 53.0° (Epoch: 23 January)

Event Time Altitude Azimuth Distance (km) Brightness Sun altitude
Rises 04:53:40 0° 195° (SSW) 2,732 7.3 -18.1°
Reaches altitude 10° 04:56:11 10° 183° (S) 1,833 6.5 -17.5°
Maximum altitude 04:59:43 27° 124° (SE) 1,089 5.9 -16.6°
Drops below altitude 10° 05:03:13 10° 66° (ENE) 1,820 6.9 -15.8°
Sets 05:05:42 0° 54° (NE) 2,708 7.6 -15.2°
